Bluefield, WV

4:15 PM EDT on September 21, 2017 (GMT -0400)
Mercer County

Weather History for KBLF - November, 2013

Change the Weather History Date:

Tuesday, November 19, 2013

  Actual Average Record
Temperature  
Mean Temperature 38 °F 46 °F  
Max Temperature 45 °F 54 °F 74 °F (1985)
Min Temperature 31 °F 38 °F 12 °F (2014)
Degree Days  
Heating Degree Days 27 19  
Month to date heating degree days 327 304  
Since 1 July heating degree days 635 668  
Cooling Degree Days 0 0  
Month to date cooling degree days 0 0  
Year to date cooling degree days 938 851  
Moisture  
Dew Point 22 °F    
Average Humidity 54    
Maximum Humidity 64    
Minimum Humidity 43    
Precipitation  
Precipitation 0.00 in 0.09 in 0.77 in (1984)
Month to date precipitation 0.97 1.65  
Year to date precipitation 34.81 35.68  
Snow  
Snow 0.00 in - - ()
Month to date snowfall 0.2  
Since 1 July snowfall 0.4  
Since 1 September snowfall 0.4  
Snow Depth 0.00 in    
Sea Level Pressure  
Sea Level Pressure 30.17 in    
Wind  
Wind Speed 7 mph (NNW)    
Max Wind Speed 17 mph    
Max Gust Speed 24 mph    
Visibility 10 miles    
Events      
T = Trace of Precipitation, MM = Missing Value Source: NWS Daily Summary

Daily Weather History Graph

Daily Weather History Graph

Search for Another Location

Airport or City:

Trip Planner

Search our weather history database for the weather conditions in past years. The results will help you decide how hot, cold, wet, or windy it might be!

Date:

Astronomy

Nov. 19, 2013 Rise Set
Actual Time 7:08 AM EST 5:11 PM EST
Civil Twilight 6:40 AM EST 5:39 PM EST
Nautical Twilight 6:08 AM EST 6:11 PM EST
Astronomical Twilight 5:37 AM EST 6:42 PM EST
Moon 7:02 PM EST (11/19) 8:46 AM EST (11/19)
Length of Visible Light 10h 59m
Length of Day
10h 03m
Waning Gibbous, 96% of the Moon is Illuminated
Nov 19
Waning Gibbous
Nov 25
Last Quarter
Dec 2
New
Dec 9
First Quarter
Dec 17
Full

Hourly Weather History & Observations

Time (EST) Temp. Windchill Dew Point Humidity Pressure Visibility Wind Dir Wind Speed Gust Speed Precip Events Conditions
12:52 AM 39.9 °F 32.9 °F 25.0 °F 55% 30.04 in 10.0 mi WNW 11.5 mph 21.9 mph N/A   Clear
1:52 AM 37.9 °F 29.2 °F 21.0 °F 51% 30.05 in 10.0 mi WNW 15.0 mph 21.9 mph N/A   Clear
2:52 AM 37.0 °F 29.3 °F 21.9 °F 54% 30.05 in 10.0 mi NW 11.5 mph 17.3 mph N/A   Clear
3:52 AM 35.1 °F 27.9 °F 21.9 °F 59% 30.07 in 10.0 mi NW 9.2 mph - N/A   Clear
4:48 AM 35.6 °F 28.6 °F 23.0 °F 60% 30.09 in 10.0 mi WNW 9.2 mph - N/A   Mostly Cloudy
4:52 AM 35.1 °F 27.9 °F 23.0 °F 61% 30.09 in 10.0 mi WNW 9.2 mph 19.6 mph N/A   Mostly Cloudy
5:01 AM 33.8 °F 25.8 °F 23.0 °F 65% 30.10 in 10.0 mi NW 10.4 mph 21.9 mph N/A   Scattered Clouds
5:23 AM 33.8 °F 27.0 °F 23.0 °F 65% 30.11 in 10.0 mi NW 8.1 mph 19.6 mph N/A   Mostly Cloudy
5:52 AM 34.0 °F 28.0 °F 23.0 °F 64% 30.12 in 10.0 mi NW 6.9 mph 17.3 mph N/A   Overcast
6:52 AM 34.0 °F 26.6 °F 23.0 °F 64% 30.15 in 10.0 mi NW 9.2 mph - N/A   Overcast
7:52 AM 33.1 °F 25.5 °F 23.0 °F 66% 30.17 in 10.0 mi WNW 9.2 mph - N/A   Mostly Cloudy
8:43 AM 35.6 °F 27.5 °F 23.0 °F 60% 30.16 in 10.0 mi NW 11.5 mph 17.3 mph N/A   Scattered Clouds
8:52 AM 35.1 °F 28.6 °F 23.0 °F 61% 30.19 in 10.0 mi NW 8.1 mph - N/A   Partly Cloudy
9:52 AM 37.0 °F 31.0 °F 23.0 °F 57% 30.19 in 10.0 mi NNW 8.1 mph - N/A   Partly Cloudy
10:52 AM 39.9 °F 36.7 °F 23.0 °F 51% 30.20 in 10.0 mi Variable 4.6 mph - N/A   Clear
11:52 AM 41.0 °F 36.4 °F 21.9 °F 47% 30.19 in 10.0 mi Variable 6.9 mph - N/A   Clear
12:52 PM 43.0 °F 41.3 °F 21.0 °F 42% 30.18 in 10.0 mi NNW 3.5 mph - N/A   Clear
1:52 PM 43.0 °F 38.2 °F 21.0 °F 42% 30.18 in 10.0 mi NNE 8.1 mph - N/A   Clear
2:52 PM 43.0 °F 38.8 °F 21.0 °F 42% 30.17 in 10.0 mi NE 6.9 mph - N/A   Clear
3:52 PM 43.0 °F 39.5 °F 21.0 °F 42% 30.19 in 10.0 mi NE 5.8 mph - N/A   Clear
4:52 PM 41.0 °F 39.0 °F 21.9 °F 47% 30.22 in 10.0 mi NNW 3.5 mph - N/A   Clear
5:52 PM 37.0 °F 31.0 °F 21.9 °F 54% 30.24 in 10.0 mi North 8.1 mph - N/A   Clear
6:52 PM 35.1 °F 32.2 °F 21.9 °F 59% 30.27 in 10.0 mi NNE 3.5 mph - N/A   Clear
7:52 PM 33.1 °F 28.7 °F 21.9 °F 64% 30.27 in 10.0 mi East 4.6 mph - N/A   Clear
8:52 PM 33.1 °F 30.0 °F 21.0 °F 61% 30.28 in 10.0 mi East 3.5 mph - N/A   Clear
9:52 PM 32.0 °F - 21.9 °F 66% 30.29 in 10.0 mi Calm Calm - N/A   Clear
10:52 PM 32.0 °F 28.7 °F 21.9 °F 66% 30.28 in 10.0 mi East 3.5 mph - N/A   Clear
11:52 PM 32.0 °F 27.5 °F 21.9 °F 66% 30.28 in 10.0 mi East 4.6 mph - N/A   Clear